Time,TemperatureF,DewpointF,PressureIn,WindDirection,WindDirectionDegrees,WindSpeedMPH,WindSpeedGustMPH,Humidity,HourlyPrecipIn,Conditions,Clouds,dailyrainin,SoftwareType,DateUTC
2013-11-15 00:00:00,44.0,42.9,30.10,SSE,166,2.0,4.0,96,0.00,,---,0.07,VWS V14.01,2013-11-15 08:00:00,
2013-11-15 00:05:00,43.9,42.8,30.11,SSE,166,4.0,4.0,96,0.00,,---,0.00,VWS V14.01,2013-11-15 08:05:00,
2013-11-15 00:10:00,43.9,42.8,30.10,SSE,156,2.0,2.0,96,0.00,,---,0.00,VWS V14.01,2013-11-15 08:10:00,
2013-11-15 00:15:00,43.9,42.8,30.10,SE,144,1.0,4.0,96,0.00,,---,0.00,VWS V14.01,2013-11-15 08:15:00,
2013-11-15 00:20:00,43.8,42.7,30.10,SE,144,2.0,4.0,96,0.00,,---,0.00,VWS V14.01,2013-11-15 08:20:00,
2013-11-15 00:25:00,43.6,42.3,30.10,ENE,57,5.0,6.0,95,0.00,,---,0.00,VWS V14.01,2013-11-15 08:25:00,
2013-11-15 00:30:00,43.2,41.9,30.10,ENE,61,7.0,7.0,95,0.00,,---,0.00,VWS V14.01,2013-11-15 08:30:00,
2013-11-15 00:35:00,42.9,41.6,30.10,ENE,68,5.0,6.0,95,0.00,,---,0.00,VWS V14.01,2013-11-15 08:35:00,
2013-11-15 00:40:00,42.7,41.6,30.10,ENE,67,3.0,5.0,96,0.00,,---,0.00,VWS V14.01,2013-11-15 08:40:00,
2013-11-15 00:45:00,42.7,41.6,30.10,ENE,71,3.0,3.0,96,0.00,,---,0.00,VWS V14.01,2013-11-15 08:45:00,
2013-11-15 00:50:00,42.7,41.6,30.10,ENE,71,2.0,2.0,96,0.00,,---,0.00,VWS V14.01,2013-11-15 08:50:00,
2013-11-15 00:55:00,42.7,41.6,30.10,ENE,71,2.0,2.0,96,0.00,,---,0.00,VWS V14.01,2013-11-15 08:55:00,
2013-11-15 01:00:00,42.7,41.6,30.10,ENE,71,3.0,4.0,96,0.00,,---,0.00,VWS V14.01,2013-11-15 09:00:00,
2013-11-15 01:05:00,42.8,42.0,30.09,ENE,64,2.0,3.0,97,0.00,,---,0.00,VWS V14.01,2013-11-15 09:05:00,
2013-11-15 01:10:00,42.7,41.6,30.09,ENE,64,0.0,1.0,96,0.00,,---,0.00,VWS V14.01,2013-11-15 09:10:00,
2013-11-15 01:15:00,42.7,41.6,30.09,ENE,64,0.0,0.0,96,0.00,,---,0.00,VWS V14.01,2013-11-15 09:15:00,
2013-11-15 01:20:00,42.7,41.6,30.09,ENE,64,0.0,0.0,96,0.00,,---,0.00,VWS V14.01,2013-11-15 09:20:00,
2013-11-15 01:26:00,42.7,41.6,30.09,ENE,64,0.0,0.0,96,0.00,,---,0.00,VWS V14.01,2013-11-15 09:26:00,
2013-11-15 01:31:00,42.7,41.9,30.09,ENE,64,0.0,0.0,97,0.00,,---,0.00,VWS V14.01,2013-11-15 09:31:00,
2013-11-15 01:36:00,42.7,41.9,30.09,ENE,64,0.0,0.0,97,0.00,,---,0.00,VWS V14.01,2013-11-15 09:36:00,
2013-11-15 01:41:00,42.7,41.9,30.09,ENE,64,0.0,0.0,97,0.00,,---,0.00,VWS V14.01,2013-11-15 09:41:00,
2013-11-15 01:46:00,42.8,42.0,30.10,ENE,64,0.0,2.0,97,0.00,,---,0.00,VWS V14.01,2013-11-15 09:46:00,
2013-11-15 01:51:00,42.8,42.0,30.09,ENE,64,0.0,0.0,97,0.00,,---,0.00,VWS V14.01,2013-11-15 09:51:00,
2013-11-15 01:56:00,42.8,42.0,30.09,ENE,64,0.0,0.0,97,0.00,,---,0.00,VWS V14.01,2013-11-15 09:56:00,
2013-11-15 02:01:00,42.9,42.1,30.09,ENE,64,0.0,0.0,97,0.00,,---,0.00,VWS V14.01,2013-11-15 10:01:00,
2013-11-15 02:06:00,42.9,42.1,30.09,ENE,64,0.0,0.0,97,0.00,,---,0.00,VWS V14.01,2013-11-15 10:06:00,
2013-11-15 02:12:00,43.1,42.3,30.08,ENE,64,0.0,0.0,97,0.00,,---,0.00,VWS V14.01,2013-11-15 10:12:00,
2013-11-15 02:17:00,43.0,42.2,30.08,North,9,0.0,2.0,97,0.00,,---,0.00,VWS V14.01,2013-11-15 10:17:00,
2013-11-15 02:22:00,43.0,42.2,30.08,North,9,1.0,1.0,97,0.00,,---,0.00,VWS V14.01,2013-11-15 10:22:00,
2013-11-15 02:27:00,43.0,42.2,30.07,North,9,0.0,0.0,97,0.00,,---,0.00,VWS V14.01,2013-11-15 10:27:00,
2013-11-15 02:32:00,43.1,42.3,30.07,NNE,20,1.0,2.0,97,0.00,,---,0.00,VWS V14.01,2013-11-15 10:32:00,
2013-11-15 02:37:00,43.1,42.3,30.07,NNE,20,0.0,0.0,97,0.00,,---,0.00,VWS V14.01,2013-11-15 10:37:00,
2013-11-15 02:42:00,43.2,42.4,30.07,NNE,31,1.0,2.0,97,0.00,,---,0.00,VWS V14.01,2013-11-15 10:42:00,
2013-11-15 02:47:00,43.2,42.4,30.06,South,176,2.0,6.0,97,0.00,,---,0.00,VWS V14.01,2013-11-15 10:47:00,
2013-11-15 02:52:00,43.3,42.5,30.06,South,175,4.0,5.0,97,0.00,,---,0.00,VWS V14.01,2013-11-15 10:52:00,
2013-11-15 02:57:00,43.5,42.7,30.06,SSW,207,2.0,7.0,97,0.00,,---,0.00,VWS V14.01,2013-11-15 10:57:00,
2013-11-15 03:02:00,43.8,42.7,30.05,South,180,5.0,7.0,96,0.00,,---,0.00,VWS V14.01,2013-11-15 11:02:00,
2013-11-15 03:07:00,44.0,42.9,30.05,South,184,2.0,7.0,96,0.00,,---,0.00,VWS V14.01,2013-11-15 11:07:00,
2013-11-15 03:12:00,44.0,42.9,30.05,South,188,5.0,6.0,96,0.00,,---,0.00,VWS V14.01,2013-11-15 11:12:00,
2013-11-15 03:18:00,44.1,43.0,30.05,South,172,10.0,10.0,96,0.00,,---,0.00,VWS V14.01,2013-11-15 11:18:00,
2013-11-15 03:23:00,44.1,43.0,30.05,SSE,164,8.0,8.0,96,0.00,,---,0.00,VWS V14.01,2013-11-15 11:23:00,
2013-11-15 03:28:00,44.1,42.8,30.05,South,179,4.0,7.0,95,0.00,,---,0.00,VWS V14.01,2013-11-15 11:28:00,
2013-11-15 03:33:00,44.1,42.8,30.05,SSW,205,2.0,8.0,95,0.00,,---,0.00,VWS V14.01,2013-11-15 11:33:00,
2013-11-15 03:38:00,44.1,43.0,30.05,SSW,209,4.0,6.0,96,0.00,,---,0.00,VWS V14.01,2013-11-15 11:38:00,
2013-11-15 03:43:00,44.1,43.0,30.06,South,182,7.0,9.0,96,0.00,,---,0.00,VWS V14.01,2013-11-15 11:43:00,
2013-11-15 03:48:00,44.2,43.1,30.06,SSW,200,6.0,7.0,96,0.00,,---,0.00,VWS V14.01,2013-11-15 11:48:00,
2013-11-15 03:53:00,44.1,43.0,30.05,SSW,213,4.0,7.0,96,0.00,,---,0.00,VWS V14.01,2013-11-15 11:53:00,
2013-11-15 03:58:00,44.0,42.7,30.05,SW,220,8.0,9.0,95,0.00,,---,0.00,VWS V14.01,2013-11-15 11:58:00,
2013-11-15 04:04:00,43.9,42.6,30.05,SW,219,3.0,6.0,95,0.00,,---,0.00,VWS V14.01,2013-11-15 12:04:00,
2013-11-15 04:09:00,43.9,42.6,30.05,SSW,198,5.0,8.0,95,0.00,,---,0.00,VWS V14.01,2013-11-15 12:09:00,
2013-11-15 04:14:00,43.9,42.6,30.05,SW,219,3.0,8.0,95,0.00,,---,0.00,VWS V14.01,2013-11-15 12:14:00,
2013-11-15 04:19:00,43.9,42.3,30.05,SSW,209,6.0,8.0,94,0.00,,---,0.00,VWS V14.01,2013-11-15 12:19:00,
2013-11-15 04:24:00,43.9,42.3,30.05,SW,225,4.0,6.0,94,0.00,,---,0.00,VWS V14.01,2013-11-15 12:24:00,
2013-11-15 04:29:00,43.9,42.3,30.05,South,177,6.0,7.0,94,0.00,,---,0.00,VWS V14.01,2013-11-15 12:29:00,
2013-11-15 04:34:00,43.8,42.2,30.04,SSE,166,6.0,8.0,94,0.00,,---,0.00,VWS V14.01,2013-11-15 12:34:00,
2013-11-15 04:39:00,43.8,42.2,30.05,SSW,210,3.0,3.0,94,0.00,,---,0.00,VWS V14.01,2013-11-15 12:39:00,
2013-11-15 04:44:00,43.7,41.8,30.05,SSW,210,2.0,2.0,93,0.00,,---,0.00,VWS V14.01,2013-11-15 12:44:00,
2013-11-15 04:49:00,43.6,41.4,30.05,South,181,6.0,6.0,92,0.00,,---,0.00,VWS V14.01,2013-11-15 12:49:00,
2013-11-15 04:54:00,43.6,41.4,30.04,SSW,210,6.0,8.0,92,0.00,,---,0.00,VWS V14.01,2013-11-15 12:54:00,
2013-11-15 04:59:00,43.6,41.4,30.04,SSW,196,11.0,11.0,92,0.00,,---,0.00,VWS V14.01,2013-11-15 12:59:00,
2013-11-15 05:04:00,43.7,41.5,30.05,SW,217,7.0,9.0,92,0.00,,---,0.00,VWS V14.01,2013-11-15 13:04:00,
2013-11-15 05:10:00,43.7,41.5,30.04,SSW,209,3.0,5.0,92,0.00,,---,0.00,VWS V14.01,2013-11-15 13:10:00,
2013-11-15 05:15:00,43.7,41.2,30.03,South,183,4.0,9.0,91,0.00,,---,0.00,VWS V14.01,2013-11-15 13:15:00,
2013-11-15 05:20:00,43.7,41.2,30.03,SSW,209,4.0,10.0,91,0.00,,---,0.00,VWS V14.01,2013-11-15 13:20:00,
2013-11-15 05:25:00,43.7,41.2,30.03,South,182,2.0,10.0,91,0.00,,---,0.00,VWS V14.01,2013-11-15 13:25:00,
2013-11-15 05:30:00,43.7,41.2,30.03,South,187,7.0,12.0,91,0.00,,---,0.00,VWS V14.01,2013-11-15 13:30:00,
2013-11-15 05:35:00,43.8,41.3,30.03,South,189,5.0,9.0,91,0.00,,---,0.00,VWS V14.01,2013-11-15 13:35:00,
2013-11-15 05:40:00,43.8,41.3,30.02,SSW,210,7.0,13.0,91,0.00,,---,0.00,VWS V14.01,2013-11-15 13:40:00,
2013-11-15 05:45:00,43.8,41.3,30.02,South,181,6.0,11.0,91,0.00,,---,0.00,VWS V14.01,2013-11-15 13:45:00,
2013-11-15 05:50:00,43.8,41.1,30.02,SSW,198,9.0,11.0,90,0.00,,---,0.00,VWS V14.01,2013-11-15 13:50:00,
2013-11-15 05:55:00,43.8,41.1,30.03,SSW,197,11.0,13.0,90,0.00,,---,0.00,VWS V14.01,2013-11-15 13:55:00,
2013-11-15 06:00:00,43.8,41.1,30.02,South,189,5.0,5.0,90,0.00,,---,0.00,VWS V14.01,2013-11-15 14:00:00,
2013-11-15 06:05:00,43.7,41.0,30.01,SW,215,12.0,15.0,90,0.00,,---,0.00,VWS V14.01,2013-11-15 14:05:00,
2013-11-15 06:10:00,43.7,41.0,30.01,SSW,196,6.0,12.0,90,0.00,,---,0.00,VWS V14.01,2013-11-15 14:10:00,
2013-11-15 06:15:00,43.7,41.0,30.01,South,189,9.0,15.0,90,0.00,,---,0.00,VWS V14.01,2013-11-15 14:15:00,
2013-11-15 06:21:00,43.6,40.9,30.00,SSW,205,11.0,11.0,90,0.00,,---,0.00,VWS V14.01,2013-11-15 14:21:00,
2013-11-15 06:26:00,43.6,40.9,30.01,SSW,207,12.0,14.0,90,0.00,,---,0.00,VWS V14.01,2013-11-15 14:26:00,
2013-11-15 06:31:00,43.7,41.0,30.01,South,173,11.0,14.0,90,0.00,,---,0.00,VWS V14.01,2013-11-15 14:31:00,
2013-11-15 06:36:00,43.7,41.0,30.00,SSE,161,14.0,17.0,90,0.00,,---,0.00,VWS V14.01,2013-11-15 14:36:00,
2013-11-15 06:41:00,43.7,41.0,30.00,SSE,164,16.0,17.0,90,0.00,,---,0.00,VWS V14.01,2013-11-15 14:41:00,
2013-11-15 06:46:00,43.8,40.8,30.00,South,182,8.0,18.0,89,0.00,,---,0.00,VWS V14.01,2013-11-15 14:46:00,
2013-11-15 06:51:00,43.8,41.1,30.01,SSW,205,9.0,12.0,90,0.00,,---,0.00,VWS V14.01,2013-11-15 14:51:00,
2013-11-15 06:56:00,43.8,40.8,30.00,South,188,5.0,15.0,89,0.00,,---,0.00,VWS V14.01,2013-11-15 14:56:00,
2013-11-15 07:01:00,43.8,40.8,30.00,SSW,201,9.0,14.0,89,0.00,,---,0.00,VWS V14.01,2013-11-15 15:01:00,
2013-11-15 07:06:00,43.8,40.8,30.01,SSW,204,9.0,11.0,89,0.00,,---,0.00,VWS V14.01,2013-11-15 15:06:00,
2013-11-15 07:11:00,43.8,40.8,30.00,SSW,213,10.0,14.0,89,0.00,,---,0.00,VWS V14.01,2013-11-15 15:11:00,
2013-11-15 07:16:00,43.8,40.8,30.00,South,178,6.0,12.0,89,0.00,,---,0.00,VWS V14.01,2013-11-15 15:16:00,
2013-11-15 07:21:00,43.8,40.8,30.00,SW,217,1.0,9.0,89,0.00,,---,0.00,VWS V14.01,2013-11-15 15:21:00,
2013-11-15 07:26:00,43.9,40.9,30.01,SW,231,6.0,9.0,89,0.00,,---,0.00,VWS V14.01,2013-11-15 15:26:00,
2013-11-15 07:31:00,43.9,40.9,30.00,South,181,8.0,10.0,89,0.00,,---,0.00,VWS V14.01,2013-11-15 15:31:00,
2013-11-15 07:36:00,43.9,40.9,29.99,SSW,211,7.0,10.0,89,0.00,,---,0.00,VWS V14.01,2013-11-15 15:36:00,
2013-11-15 07:41:00,43.9,41.2,29.99,SSW,208,10.0,10.0,90,0.00,,---,0.00,VWS V14.01,2013-11-15 15:41:00,
2013-11-15 07:46:00,43.9,41.2,29.99,South,178,8.0,10.0,90,0.00,,---,0.00,VWS V14.01,2013-11-15 15:46:00,
2013-11-15 07:51:00,43.9,40.9,29.99,South,182,4.0,7.0,89,0.00,,---,0.00,VWS V14.01,2013-11-15 15:51:00,
2013-11-15 07:56:00,43.9,40.9,29.99,South,184,4.0,11.0,89,0.00,,---,0.00,VWS V14.01,2013-11-15 15:56:00,
2013-11-15 08:01:00,44.0,41.0,29.99,SSW,205,9.0,10.0,89,0.00,,---,0.00,VWS V14.01,2013-11-15 16:01:00,
2013-11-15 08:06:00,44.0,41.0,29.98,SSE,168,7.0,9.0,89,0.00,,---,0.00,VWS V14.01,2013-11-15 16:06:00,
2013-11-15 08:11:00,44.1,41.1,29.99,SSW,213,5.0,8.0,89,0.00,,---,0.00,VWS V14.01,2013-11-15 16:11:00,
2013-11-15 08:16:00,44.1,41.1,29.98,SSW,208,6.0,10.0,89,0.00,,---,0.00,VWS V14.01,2013-11-15 16:16:00,
2013-11-15 08:21:00,44.1,41.1,29.98,South,182,7.0,8.0,89,0.00,,---,0.00,VWS V14.01,2013-11-15 16:21:00,
2013-11-15 08:26:00,44.2,41.2,29.97,South,172,10.0,11.0,89,0.00,,---,0.00,VWS V14.01,2013-11-15 16:26:00,
2013-11-15 08:32:00,44.2,41.2,29.97,SSW,196,13.0,13.0,89,0.00,,---,0.00,VWS V14.01,2013-11-15 16:32:00,
2013-11-15 08:37:00,44.2,41.2,29.98,South,185,8.0,9.0,89,0.00,,---,0.00,VWS V14.01,2013-11-15 16:37:00,
2013-11-15 08:42:00,44.3,41.3,29.98,South,182,3.0,11.0,89,0.00,,---,0.00,VWS V14.01,2013-11-15 16:42:00,
2013-11-15 08:47:00,44.3,41.3,29.98,SSW,200,5.0,6.0,89,0.00,,---,0.00,VWS V14.01,2013-11-15 16:47:00,
2013-11-15 08:52:00,44.3,41.3,29.98,South,188,9.0,9.0,89,0.00,,---,0.00,VWS V14.01,2013-11-15 16:52:00,
2013-11-15 08:57:00,44.4,41.1,29.97,SSW,196,4.0,4.0,88,0.00,,---,0.00,VWS V14.01,2013-11-15 16:57:00,
2013-11-15 09:02:00,44.5,41.2,29.97,SSE,159,12.0,13.0,88,0.00,,---,0.00,VWS V14.01,2013-11-15 17:02:00,
2013-11-15 09:07:00,44.5,41.2,29.97,South,182,12.0,16.0,88,0.00,,---,0.00,VWS V14.01,2013-11-15 17:07:00,
2013-11-15 09:12:00,44.5,41.2,29.97,South,186,5.0,11.0,88,0.00,,---,0.00,VWS V14.01,2013-11-15 17:12:00,
2013-11-15 09:18:00,44.5,41.5,29.97,SSW,213,5.0,10.0,89,0.00,,---,0.00,VWS V14.01,2013-11-15 17:18:00,
2013-11-15 09:23:00,44.5,41.5,29.96,South,190,7.0,11.0,89,0.00,,---,0.00,VWS V14.01,2013-11-15 17:23:00,
2013-11-15 09:28:00,44.5,41.5,29.96,SSW,200,9.0,11.0,89,0.00,,---,0.00,VWS V14.01,2013-11-15 17:28:00,
2013-11-15 09:33:00,44.5,41.2,29.96,South,178,11.0,13.0,88,0.00,,---,0.00,VWS V14.01,2013-11-15 17:33:00,
2013-11-15 09:38:00,44.6,41.3,29.96,SSW,197,7.0,7.0,88,0.00,,---,0.00,VWS V14.01,2013-11-15 17:38:00,
2013-11-15 09:43:00,44.7,41.4,29.96,SSW,201,7.0,9.0,88,0.00,,---,0.00,VWS V14.01,2013-11-15 17:43:00,
2013-11-15 09:48:00,44.8,41.5,29.96,SW,217,3.0,5.0,88,0.00,,---,0.00,VWS V14.01,2013-11-15 17:48:00,
2013-11-15 09:53:00,44.8,41.2,29.95,SSW,207,4.0,6.0,87,0.00,,---,0.00,VWS V14.01,2013-11-15 17:53:00,
2013-11-15 09:58:00,44.8,41.5,29.95,South,169,4.0,5.0,88,0.00,,---,0.00,VWS V14.01,2013-11-15 17:58:00,
2013-11-15 10:04:00,44.8,41.5,29.95,South,181,7.0,10.0,88,0.00,,---,0.00,VWS V14.01,2013-11-15 18:04:00,
2013-11-15 10:09:00,44.7,41.4,29.94,SW,219,2.0,4.0,88,0.00,,---,0.00,VWS V14.01,2013-11-15 18:09:00,
2013-11-15 10:14:00,44.7,41.4,29.94,SSW,204,3.0,3.0,88,0.00,,---,0.00,VWS V14.01,2013-11-15 18:14:00,
2013-11-15 10:19:00,44.7,41.7,29.94,South,170,6.0,6.0,89,0.00,,---,0.00,VWS V14.01,2013-11-15 18:19:00,
2013-11-15 10:24:00,44.7,41.7,29.93,SW,217,5.0,6.0,89,0.00,,---,0.00,VWS V14.01,2013-11-15 18:24:00,
2013-11-15 10:29:00,44.8,41.8,29.93,SSW,204,6.0,9.0,89,0.00,,---,0.00,VWS V14.01,2013-11-15 18:29:00,
2013-11-15 10:34:00,44.8,41.8,29.93,SSW,211,3.0,5.0,89,0.00,,---,0.00,VWS V14.01,2013-11-15 18:34:00,
2013-11-15 10:39:00,44.8,42.0,29.93,SSW,207,2.0,3.0,90,0.00,,---,0.00,VWS V14.01,2013-11-15 18:39:00,
2013-11-15 10:44:00,44.8,42.0,29.93,SSW,208,5.0,6.0,90,0.00,,---,0.00,VWS V14.01,2013-11-15 18:44:00,
2013-11-15 10:49:00,44.7,42.0,29.93,South,189,4.0,6.0,90,0.00,,---,0.00,VWS V14.01,2013-11-15 18:49:00,
2013-11-15 10:54:00,44.7,42.2,29.92,SSW,201,2.0,3.0,91,0.00,,---,0.00,VWS V14.01,2013-11-15 18:54:00,
2013-11-15 10:59:00,44.7,42.2,29.92,SSW,199,3.0,5.0,91,0.00,,---,0.00,VWS V14.01,2013-11-15 18:59:00,
2013-11-15 11:04:00,44.6,42.4,29.92,SE,133,6.0,8.0,92,0.00,,---,0.00,VWS V14.01,2013-11-15 19:04:00,
2013-11-15 11:09:00,44.5,42.3,29.92,South,189,4.0,7.0,92,0.00,,---,0.00,VWS V14.01,2013-11-15 19:09:00,
2013-11-15 11:14:00,44.5,42.6,29.91,SSW,198,4.0,4.0,93,0.00,,---,0.00,VWS V14.01,2013-11-15 19:14:00,
2013-11-15 11:19:00,44.4,42.5,29.91,South,180,4.0,10.0,93,0.00,,---,0.00,VWS V14.01,2013-11-15 19:19:00,
2013-11-15 11:24:00,44.3,42.4,29.90,South,187,6.0,9.0,93,0.01,,---,0.01,VWS V14.01,2013-11-15 19:24:00,
2013-11-15 11:29:00,44.3,42.7,29.90,SSW,204,6.0,6.0,94,0.01,,---,0.01,VWS V14.01,2013-11-15 19:29:00,
2013-11-15 11:34:00,44.3,42.7,29.89,SSW,198,7.0,7.0,94,0.02,,---,0.02,VWS V14.01,2013-11-15 19:34:00,
2013-11-15 11:39:00,44.2,42.6,29.89,SSW,211,5.0,7.0,94,0.02,,---,0.02,VWS V14.01,2013-11-15 19:39:00,
2013-11-15 11:44:00,44.2,42.6,29.89,SSW,193,6.0,6.0,94,0.02,,---,0.02,VWS V14.01,2013-11-15 19:44:00,
2013-11-15 11:49:00,44.2,42.9,29.88,SW,219,4.0,8.0,95,0.02,,---,0.02,VWS V14.01,2013-11-15 19:49:00,
2013-11-15 11:55:00,44.3,43.0,29.87,SSW,208,5.0,8.0,95,0.03,,---,0.03,VWS V14.01,2013-11-15 19:55:00,
2013-11-15 12:00:00,44.2,42.9,29.87,SW,221,3.0,5.0,95,0.04,,---,0.04,VWS V14.01,2013-11-15 20:00:00,
2013-11-15 12:05:00,44.2,42.9,29.87,SW,214,6.0,10.0,95,0.04,,---,0.04,VWS V14.01,2013-11-15 20:05:00,
2013-11-15 12:10:00,44.2,42.9,29.86,South,178,10.0,16.0,95,0.04,,---,0.04,VWS V14.01,2013-11-15 20:10:00,
2013-11-15 12:15:00,44.2,42.9,29.86,SW,219,3.0,8.0,95,0.05,,---,0.05,VWS V14.01,2013-11-15 20:15:00,
2013-11-15 12:20:00,44.3,43.0,29.85,East,88,8.0,14.0,95,0.05,,---,0.05,VWS V14.01,2013-11-15 20:20:00,
2013-11-15 12:25:00,44.2,42.9,29.85,SSW,206,8.0,12.0,95,0.05,,---,0.06,VWS V14.01,2013-11-15 20:25:00,
2013-11-15 12:30:00,44.2,42.9,29.84,SSW,202,5.0,7.0,95,0.05,,---,0.06,VWS V14.01,2013-11-15 20:30:00,
2013-11-15 12:35:00,44.2,42.9,29.83,SSW,200,13.0,14.0,95,0.04,,---,0.06,VWS V14.01,2013-11-15 20:35:00,
2013-11-15 12:40:00,44.3,43.0,29.83,SSW,203,7.0,11.0,95,0.05,,---,0.07,VWS V14.01,2013-11-15 20:40:00,
2013-11-15 12:45:00,44.2,42.9,29.83,South,188,10.0,17.0,95,0.06,,---,0.08,VWS V14.01,2013-11-15 20:45:00,
2013-11-15 12:50:00,44.2,42.9,29.82,SSW,201,14.0,17.0,95,0.06,,---,0.08,VWS V14.01,2013-11-15 20:50:00,
2013-11-15 12:55:00,44.3,43.0,29.82,SSE,155,1.0,1.0,95,0.06,,---,0.09,VWS V14.01,2013-11-15 20:55:00,
2013-11-15 13:00:00,44.3,43.0,29.81,SW,215,11.0,13.0,95,0.06,,---,0.10,VWS V14.01,2013-11-15 21:00:00,
2013-11-15 13:05:00,44.3,43.0,29.81,South,190,11.0,13.0,95,0.06,,---,0.10,VWS V14.01,2013-11-15 21:05:00,
2013-11-15 13:10:00,44.2,42.9,29.81,South,187,8.0,15.0,95,0.07,,---,0.11,VWS V14.01,2013-11-15 21:10:00,
2013-11-15 13:15:00,44.2,42.9,29.81,SW,214,9.0,15.0,95,0.07,,---,0.12,VWS V14.01,2013-11-15 21:15:00,
2013-11-15 13:20:00,44.2,42.9,29.81,SSW,192,7.0,15.0,95,0.07,,---,0.12,VWS V14.01,2013-11-15 21:20:00,
2013-11-15 13:25:00,44.1,42.8,29.80,WSW,242,9.0,13.0,95,0.07,,---,0.13,VWS V14.01,2013-11-15 21:25:00,
2013-11-15 13:30:00,44.0,42.7,29.79,South,188,5.0,11.0,95,0.08,,---,0.14,VWS V14.01,2013-11-15 21:30:00,
2013-11-15 13:35:00,44.0,42.7,29.79,SW,220,9.0,16.0,95,0.08,,---,0.14,VWS V14.01,2013-11-15 21:35:00,
2013-11-15 13:40:00,44.0,42.7,29.78,South,187,11.0,19.0,95,0.08,,---,0.15,VWS V14.01,2013-11-15 21:40:00,
2013-11-15 13:45:00,44.0,42.7,29.78,SW,219,6.0,12.0,95,0.07,,---,0.15,VWS V14.01,2013-11-15 21:45:00,
2013-11-15 13:50:00,44.0,42.7,29.77,South,187,17.0,18.0,95,0.08,,---,0.16,VWS V14.01,2013-11-15 21:50:00,
2013-11-15 13:55:00,44.1,42.8,29.76,WSW,241,13.0,22.0,95,0.08,,---,0.16,VWS V14.01,2013-11-15 21:55:00,
2013-11-15 14:00:00,44.2,42.6,29.76,SSE,163,12.0,15.0,94,0.08,,---,0.17,VWS V14.01,2013-11-15 22:00:00,
2013-11-15 14:05:00,44.2,42.6,29.76,South,190,13.0,22.0,94,0.08,,---,0.18,VWS V14.01,2013-11-15 22:05:00,
2013-11-15 14:10:00,44.3,42.7,29.75,South,191,11.0,26.0,94,0.07,,---,0.18,VWS V14.01,2013-11-15 22:10:00,
2013-11-15 14:15:00,44.1,42.5,29.75,SSW,195,13.0,17.0,94,0.06,,---,0.18,VWS V14.01,2013-11-15 22:15:00,
2013-11-15 14:20:00,44.0,42.4,29.75,SSW,202,8.0,16.0,94,0.07,,---,0.19,VWS V14.01,2013-11-15 22:20:00,
2013-11-15 14:25:00,44.0,42.4,29.74,SSW,203,8.0,19.0,94,0.07,,---,0.20,VWS V14.01,2013-11-15 22:25:00,
2013-11-15 14:30:00,44.0,42.4,29.73,South,190,12.0,19.0,94,0.06,,---,0.20,VWS V14.01,2013-11-15 22:30:00,
2013-11-15 14:35:00,43.9,42.3,29.72,SSW,192,17.0,20.0,94,0.06,,---,0.20,VWS V14.01,2013-11-15 22:35:00,
2013-11-15 14:40:00,43.9,42.3,29.72,SW,219,8.0,13.0,94,0.06,,---,0.21,VWS V14.01,2013-11-15 22:40:00,
2013-11-15 14:45:00,43.9,42.3,29.72,South,186,12.0,22.0,94,0.06,,---,0.21,VWS V14.01,2013-11-15 22:45:00,
2013-11-15 14:50:00,43.8,42.2,29.72,SE,140,15.0,16.0,94,0.05,,---,0.21,VWS V14.01,2013-11-15 22:50:00,
2013-11-15 14:55:00,43.7,42.4,29.71,SSE,159,17.0,17.0,95,0.05,,---,0.21,VWS V14.01,2013-11-15 22:55:00,
2013-11-15 15:00:00,43.6,42.0,29.71,SSW,207,15.0,21.0,94,0.04,,---,0.21,VWS V14.01,2013-11-15 23:00:00,
2013-11-15 15:05:00,43.6,42.3,29.71,SW,231,7.0,16.0,95,0.03,,---,0.21,VWS V14.01,2013-11-15 23:05:00,
2013-11-15 15:11:00,43.7,42.4,29.70,South,186,24.0,26.0,95,0.04,,---,0.22,VWS V14.01,2013-11-15 23:11:00,
2013-11-15 15:16:00,43.9,42.3,29.70,SSW,201,17.0,19.0,94,0.04,,---,0.22,VWS V14.01,2013-11-15 23:16:00,
2013-11-15 15:21:00,43.8,42.5,29.70,South,171,10.0,16.0,95,0.03,,---,0.22,VWS V14.01,2013-11-15 23:21:00,
2013-11-15 15:26:00,43.8,42.5,29.69,SSW,200,13.0,26.0,95,0.02,,---,0.22,VWS V14.01,2013-11-15 23:26:00,
2013-11-15 15:31:00,44.1,42.5,29.69,South,188,10.0,13.0,94,0.03,,---,0.23,VWS V14.01,2013-11-15 23:31:00,
2013-11-15 15:36:00,44.0,42.4,29.68,ESE,106,13.0,16.0,94,0.03,,---,0.23,VWS V14.01,2013-11-15 23:36:00,
2013-11-15 15:41:00,44.0,42.7,29.68,SSW,198,9.0,22.0,95,0.03,,---,0.24,VWS V14.01,2013-11-15 23:41:00,
2013-11-15 15:46:00,44.0,42.7,29.67,SW,220,18.0,24.0,95,0.03,,---,0.24,VWS V14.01,2013-11-15 23:46:00,
2013-11-15 15:51:00,44.0,42.7,29.67,South,182,8.0,30.0,95,0.03,,---,0.24,VWS V14.01,2013-11-15 23:51:00,
2013-11-15 15:56:00,44.0,42.4,29.67,South,184,22.0,23.0,94,0.03,,---,0.24,VWS V14.01,2013-11-15 23:56:00,
2013-11-15 16:01:00,44.2,42.6,29.66,SSW,204,16.0,25.0,94,0.03,,---,0.24,VWS V14.01,2013-11-16 00:01:00,
2013-11-15 16:07:00,44.3,42.7,29.66,South,188,9.0,29.0,94,0.03,,---,0.24,VWS V14.01,2013-11-16 00:07:00,
2013-11-15 16:12:00,44.4,42.5,29.65,SW,232,9.0,17.0,93,0.02,,---,0.24,VWS V14.01,2013-11-16 00:12:00,
2013-11-15 16:17:00,44.4,42.5,29.65,SSW,208,14.0,23.0,93,0.02,,---,0.24,VWS V14.01,2013-11-16 00:17:00,
2013-11-15 16:22:00,44.5,42.6,29.64,SSW,196,16.0,25.0,93,0.02,,---,0.24,VWS V14.01,2013-11-16 00:22:00,
2013-11-15 16:27:00,44.6,42.7,29.64,SSW,196,22.0,27.0,93,0.02,,---,0.24,VWS V14.01,2013-11-16 00:27:00,
2013-11-15 16:32:00,44.6,42.7,29.63,South,191,10.0,21.0,93,0.01,,---,0.24,VWS V14.01,2013-11-16 00:32:00,
2013-11-15 16:37:00,44.5,42.6,29.63,SSW,196,12.0,23.0,93,0.01,,---,0.24,VWS V14.01,2013-11-16 00:37:00,
2013-11-15 16:42:00,44.7,42.8,29.62,SW,221,13.0,27.0,93,0.00,,---,0.24,VWS V14.01,2013-11-16 00:42:00,
2013-11-15 16:47:00,44.7,42.5,29.62,SSW,205,20.0,21.0,92,0.00,,---,0.24,VWS V14.01,2013-11-16 00:47:00,
2013-11-15 16:52:00,44.7,42.5,29.62,SW,223,15.0,22.0,92,0.00,,---,0.24,VWS V14.01,2013-11-16 00:52:00,
2013-11-15 16:57:00,44.6,42.4,29.61,South,176,25.0,25.0,92,0.00,,---,0.24,VWS V14.01,2013-11-16 00:57:00,
2013-11-15 17:02:00,44.6,42.4,29.60,South,176,10.0,30.0,92,0.00,,---,0.24,VWS V14.01,2013-11-16 01:02:00,
2013-11-15 17:08:00,44.8,42.6,29.60,SSW,205,12.0,24.0,92,0.00,,---,0.24,VWS V14.01,2013-11-16 01:08:00,
2013-11-15 17:13:00,44.8,42.6,29.59,SSW,211,20.0,23.0,92,0.00,,---,0.24,VWS V14.01,2013-11-16 01:13:00,
2013-11-15 17:18:00,44.8,42.6,29.59,SSW,213,18.0,27.0,92,0.00,,---,0.24,VWS V14.01,2013-11-16 01:18:00,
2013-11-15 17:23:00,44.9,42.7,29.58,SSW,198,13.0,28.0,92,0.00,,---,0.24,VWS V14.01,2013-11-16 01:23:00,
2013-11-15 17:28:00,45.0,42.8,29.58,SW,224,16.0,21.0,92,0.00,,---,0.24,VWS V14.01,2013-11-16 01:28:00,
2013-11-15 17:33:00,44.9,42.7,29.58,SSW,195,24.0,29.0,92,0.00,,---,0.24,VWS V14.01,2013-11-16 01:33:00,
2013-11-15 17:38:00,45.1,42.6,29.58,SSW,212,4.0,21.0,91,0.00,,---,0.24,VWS V14.01,2013-11-16 01:38:00,
2013-11-15 17:43:00,45.0,42.8,29.58,SSW,207,17.0,27.0,92,0.00,,---,0.24,VWS V14.01,2013-11-16 01:43:00,
2013-11-15 17:48:00,44.7,42.5,29.58,SSW,212,15.0,25.0,92,0.00,,---,0.24,VWS V14.01,2013-11-16 01:48:00,
2013-11-15 17:53:00,44.6,42.7,29.58,SSW,199,10.0,16.0,93,0.00,,---,0.24,VWS V14.01,2013-11-16 01:53:00,
2013-11-15 17:58:00,44.4,42.8,29.58,SW,219,9.0,23.0,94,0.00,,---,0.24,VWS V14.01,2013-11-16 01:58:00,
2013-11-15 18:03:00,44.5,42.9,29.58,SW,215,12.0,18.0,94,0.00,,---,0.24,VWS V14.01,2013-11-16 02:03:00,
2013-11-15 18:08:00,44.5,42.9,29.57,SSW,200,21.0,24.0,94,0.00,,---,0.24,VWS V14.01,2013-11-16 02:08:00,
2013-11-15 18:13:00,44.6,43.0,29.57,South,184,17.0,22.0,94,0.00,,---,0.24,VWS V14.01,2013-11-16 02:13:00,
2013-11-15 18:18:00,44.6,43.0,29.56,SSW,199,12.0,21.0,94,0.00,,---,0.24,VWS V14.01,2013-11-16 02:18:00,
2013-11-15 18:23:00,44.6,43.0,29.55,SSW,193,15.0,15.0,94,0.00,,---,0.24,VWS V14.01,2013-11-16 02:23:00,
2013-11-15 18:28:00,44.7,43.1,29.55,South,170,21.0,21.0,94,0.01,,---,0.25,VWS V14.01,2013-11-16 02:28:00,
2013-11-15 18:33:00,45.0,43.1,29.54,SSW,207,10.0,17.0,93,0.01,,---,0.25,VWS V14.01,2013-11-16 02:33:00,
2013-11-15 18:38:00,45.1,43.2,29.54,SSW,207,11.0,14.0,93,0.01,,---,0.25,VWS V14.01,2013-11-16 02:38:00,
2013-11-15 18:44:00,45.0,43.1,29.52,SSW,199,15.0,19.0,93,0.01,,---,0.25,VWS V14.01,2013-11-16 02:44:00,
2013-11-15 18:49:00,45.0,43.1,29.51,South,182,19.0,29.0,93,0.01,,---,0.25,VWS V14.01,2013-11-16 02:49:00,
2013-11-15 18:54:00,45.2,43.3,29.50,SSW,209,15.0,24.0,93,0.01,,---,0.25,VWS V14.01,2013-11-16 02:54:00,
2013-11-15 18:59:00,45.1,42.9,29.49,SW,223,19.0,23.0,92,0.01,,---,0.25,VWS V14.01,2013-11-16 02:59:00,
2013-11-15 19:04:00,44.9,43.0,29.49,SW,223,16.0,33.0,93,0.01,,---,0.25,VWS V14.01,2013-11-16 03:04:00,
2013-11-15 19:09:00,45.0,43.1,29.49,South,185,15.0,25.0,93,0.01,,---,0.25,VWS V14.01,2013-11-16 03:09:00,
2013-11-15 19:15:00,45.0,43.1,29.48,SW,220,11.0,18.0,93,0.01,,---,0.25,VWS V14.01,2013-11-16 03:15:00,
2013-11-15 19:20:00,45.4,43.2,29.48,SW,221,16.0,26.0,92,0.01,,---,0.25,VWS V14.01,2013-11-16 03:20:00,
2013-11-15 19:25:00,45.8,43.3,29.48,SSW,203,24.0,24.0,91,0.01,,---,0.25,VWS V14.01,2013-11-16 03:25:00,
2013-11-15 19:30:00,45.7,43.2,29.48,SSE,166,18.0,24.0,91,0.00,,---,0.25,VWS V14.01,2013-11-16 03:30:00,
2013-11-15 19:35:00,45.6,43.1,29.47,South,186,22.0,26.0,91,0.00,,---,0.25,VWS V14.01,2013-11-16 03:35:00,
2013-11-15 19:40:00,45.4,42.9,29.47,SSW,209,18.0,29.0,91,0.00,,---,0.25,VWS V14.01,2013-11-16 03:40:00,
2013-11-15 19:45:00,45.3,43.1,29.47,SSW,204,20.0,20.0,92,0.00,,---,0.25,VWS V14.01,2013-11-16 03:45:00,
2013-11-15 19:50:00,45.0,43.1,29.46,South,173,16.0,22.0,93,0.00,,---,0.25,VWS V14.01,2013-11-16 03:50:00,
2013-11-15 19:55:00,44.9,43.0,29.46,SSW,209,11.0,20.0,93,0.00,,---,0.25,VWS V14.01,2013-11-16 03:55:00,
2013-11-15 20:00:00,44.8,42.9,29.45,SW,214,22.0,25.0,93,0.00,,---,0.25,VWS V14.01,2013-11-16 04:00:00,
2013-11-15 20:05:00,44.7,43.1,29.44,SW,217,15.0,29.0,94,0.01,,---,0.26,VWS V14.01,2013-11-16 04:05:00,
2013-11-15 20:10:00,44.5,42.9,29.44,South,190,7.0,22.0,94,0.01,,---,0.26,VWS V14.01,2013-11-16 04:10:00,
2013-11-15 20:15:00,44.4,43.1,29.43,WSW,242,12.0,24.0,95,0.01,,---,0.26,VWS V14.01,2013-11-16 04:15:00,
2013-11-15 20:20:00,44.4,43.1,29.44,SSW,196,11.0,23.0,95,0.01,,---,0.26,VWS V14.01,2013-11-16 04:20:00,
2013-11-15 20:25:00,44.3,43.0,29.43,SSW,199,18.0,27.0,95,0.01,,---,0.26,VWS V14.01,2013-11-16 04:25:00,
2013-11-15 20:30:00,44.4,43.1,29.43,SE,142,10.0,25.0,95,0.01,,---,0.26,VWS V14.01,2013-11-16 04:30:00,
2013-11-15 20:35:00,44.5,43.2,29.42,SW,216,12.0,27.0,95,0.01,,---,0.26,VWS V14.01,2013-11-16 04:35:00,
2013-11-15 20:40:00,44.4,43.1,29.42,SSW,200,13.0,24.0,95,0.01,,---,0.26,VWS V14.01,2013-11-16 04:40:00,
2013-11-15 20:45:00,44.4,43.1,29.42,SW,216,11.0,19.0,95,0.01,,---,0.26,VWS V14.01,2013-11-16 04:45:00,
2013-11-15 20:50:00,44.5,43.2,29.42,SSW,200,19.0,26.0,95,0.01,,---,0.26,VWS V14.01,2013-11-16 04:50:00,
2013-11-15 20:55:00,45.1,43.8,29.41,South,184,12.0,26.0,95,0.02,,---,0.27,VWS V14.01,2013-11-16 04:55:00,
2013-11-15 21:00:00,44.9,43.3,29.41,South,188,21.0,28.0,94,0.02,,---,0.27,VWS V14.01,2013-11-16 05:00:00,
2013-11-15 21:01:00,44.9,43.3,29.41,South,171,16.0,21.0,94,0.02,,---,0.27,VWS V14.01,2013-11-16 05:01:00,
2013-11-15 21:02:00,44.8,43.5,29.41,SSW,207,16.0,27.0,95,0.02,,---,0.27,VWS V14.01,2013-11-16 05:02:00,
2013-11-15 21:03:00,44.8,43.5,29.41,SSW,209,12.0,19.0,95,0.02,,---,0.27,VWS V14.01,2013-11-16 05:03:00,
2013-11-15 21:08:00,44.8,43.5,29.41,SW,215,8.0,21.0,95,0.01,,---,0.27,VWS V14.01,2013-11-16 05:08:00,
2013-11-15 21:13:00,44.9,43.6,29.40,South,190,14.0,20.0,95,0.01,,---,0.27,VWS V14.01,2013-11-16 05:13:00,
2013-11-15 21:18:00,44.9,43.6,29.39,SSW,198,20.0,25.0,95,0.01,,---,0.27,VWS V14.01,2013-11-16 05:18:00,
2013-11-15 21:23:00,45.0,43.7,29.39,SSE,160,11.0,20.0,95,0.01,,---,0.27,VWS V14.01,2013-11-16 05:23:00,
2013-11-15 21:28:00,45.4,44.0,29.40,SW,215,11.0,22.0,95,0.01,,---,0.27,VWS V14.01,2013-11-16 05:28:00,
2013-11-15 21:33:00,45.6,44.2,29.39,SW,222,18.0,22.0,95,0.01,,---,0.27,VWS V14.01,2013-11-16 05:33:00,
2013-11-15 21:38:00,45.6,44.2,29.39,South,169,12.0,22.0,95,0.01,,---,0.27,VWS V14.01,2013-11-16 05:38:00,
2013-11-15 21:43:00,45.8,44.5,29.39,SSW,194,9.0,12.0,95,0.01,,---,0.27,VWS V14.01,2013-11-16 05:43:00,
2013-11-15 21:48:00,45.9,44.3,29.38,SW,233,2.0,7.0,94,0.01,,---,0.27,VWS V14.01,2013-11-16 05:48:00,
2013-11-15 21:53:00,46.1,44.8,29.38,SSW,208,8.0,12.0,95,0.00,,---,0.27,VWS V14.01,2013-11-16 05:53:00,
2013-11-15 21:58:00,46.4,45.0,29.38,SSW,196,12.0,12.0,95,0.00,,---,0.27,VWS V14.01,2013-11-16 05:58:00,
2013-11-15 22:03:00,46.8,45.2,29.38,South,186,6.0,15.0,94,0.00,,---,0.27,VWS V14.01,2013-11-16 06:03:00,
2013-11-15 22:09:00,47.0,45.4,29.38,SSW,213,12.0,16.0,94,0.00,,---,0.27,VWS V14.01,2013-11-16 06:09:00,
2013-11-15 22:14:00,47.0,45.4,29.38,SSW,199,12.0,16.0,94,0.00,,---,0.27,VWS V14.01,2013-11-16 06:14:00,
2013-11-15 22:19:00,47.1,45.5,29.38,SW,217,11.0,24.0,94,0.00,,---,0.27,VWS V14.01,2013-11-16 06:19:00,
2013-11-15 22:24:00,47.2,45.6,29.37,SW,232,10.0,18.0,94,0.00,,---,0.27,VWS V14.01,2013-11-16 06:24:00,
2013-11-15 22:29:00,47.3,45.4,29.37,SSW,205,11.0,13.0,93,0.00,,---,0.27,VWS V14.01,2013-11-16 06:29:00,
2013-11-15 22:34:00,47.4,45.5,29.38,SSW,211,15.0,15.0,93,0.00,,---,0.27,VWS V14.01,2013-11-16 06:34:00,
2013-11-15 22:39:00,47.4,45.5,29.37,SW,219,11.0,22.0,93,0.00,,---,0.27,VWS V14.01,2013-11-16 06:39:00,
2013-11-15 22:44:00,47.5,45.6,29.38,SSW,205,19.0,24.0,93,0.00,,---,0.27,VWS V14.01,2013-11-16 06:44:00,
2013-11-15 22:49:00,47.6,45.7,29.38,SW,219,9.0,17.0,93,0.00,,---,0.27,VWS V14.01,2013-11-16 06:49:00,
2013-11-15 22:54:00,47.6,45.7,29.38,SSW,205,10.0,21.0,93,0.00,,---,0.27,VWS V14.01,2013-11-16 06:54:00,
2013-11-15 22:59:00,47.7,45.5,29.38,SSE,152,6.0,17.0,92,0.00,,---,0.27,VWS V14.01,2013-11-16 06:59:00,
2013-11-15 23:04:00,47.7,45.5,29.38,SW,223,13.0,13.0,92,0.00,,---,0.27,VWS V14.01,2013-11-16 07:04:00,
2013-11-15 23:09:00,47.7,45.2,29.39,SSE,165,13.0,13.0,91,0.00,,---,0.27,VWS V14.01,2013-11-16 07:09:00,
2013-11-15 23:14:00,47.7,45.2,29.39,SW,236,9.0,10.0,91,0.00,,---,0.27,VWS V14.01,2013-11-16 07:14:00,
2013-11-15 23:19:00,47.6,44.8,29.40,WSW,255,5.0,7.0,90,0.00,,---,0.27,VWS V14.01,2013-11-16 07:19:00,
2013-11-15 23:24:00,47.3,43.6,29.40,NW,321,2.0,10.0,87,0.00,,---,0.27,VWS V14.01,2013-11-16 07:24:00,
2013-11-15 23:29:00,46.4,42.5,29.41,NE,44,4.0,6.0,86,0.00,,---,0.27,VWS V14.01,2013-11-16 07:29:00,
2013-11-15 23:34:00,45.8,42.2,29.40,NE,41,1.0,6.0,87,0.00,,---,0.27,VWS V14.01,2013-11-16 07:34:00,
2013-11-15 23:39:00,45.3,42.0,29.40,NE,46,7.0,11.0,88,0.00,,---,0.27,VWS V14.01,2013-11-16 07:39:00,
2013-11-15 23:44:00,44.9,41.9,29.41,North,350,0.0,3.0,89,0.00,,---,0.27,VWS V14.01,2013-11-16 07:44:00,
2013-11-15 23:49:00,44.7,41.7,29.41,North,350,0.0,0.0,89,0.00,,---,0.27,VWS V14.01,2013-11-16 07:49:00,
2013-11-15 23:54:00,44.5,41.8,29.41,East,101,1.0,4.0,90,0.00,,---,0.27,VWS V14.01,2013-11-16 07:54:00,
2013-11-15 23:59:00,44.3,41.6,29.41,East,82,3.0,4.0,90,0.01,,---,0.28,VWS V14.01,2013-11-16 07:59:00,